When you browse on this site, cookies collect data to enhance your experience and personalize the content and advertising you see.
Visit our Privacy Policy to learn more. By continuing to use the site, you agree to this use of cookies and data.
  • In Hungary
  • List of Countries
  • For 7 days
  • Water Temperature
  • Satellite Maps
  • Weather Map
  • News
  • Weather Widgets
  • user-avatar
    Login

    Hourly Weather Rozhdestvenskoe

    Today, 22 January, Tuesday

    Time Temperature Precipitation Wind Pressure Humidity
    00:00 -16°C° 0 mm 3 mps 745 mmHg 95%
    01:00 -16°C° 0 mm 3 mps 745 mmHg 94%
    02:00 -17°C° 0 mm 3 mps 745 mmHg 94%
    03:00 -16°C° 0 mm 3 mps 745 mmHg 93%
    04:00 -17°C° 0 mm 3 mps 745 mmHg 94%
    05:00 -17°C° 0 mm 3 mps 745 mmHg 96%
    06:00 -18°C° 0 mm 3 mps 746 mmHg 97%
    07:00 -17°C° 0 mm 3 mps 746 mmHg 96%
    08:00 -16°C° 0 mm 3 mps 747 mmHg 96%
    09:00 -15°C° 0 mm 3 mps 747 mmHg 96%
    10:00 -16°C° 0 mm 4 mps 748 mmHg 94%
    11:00 -16°C° 0 mm 4 mps 748 mmHg 92%
    12:00 -16°C° 0 mm 4 mps 748 mmHg 91%
    13:00 -16°C° 0 mm 4 mps 748 mmHg 91%
    14:00 -16°C° 0 mm 3 mps 749 mmHg 91%
    15:00 -16°C° 0 mm 3 mps 749 mmHg 91%
    16:00 -18°C° 0 mm 3 mps 749 mmHg 93%
    17:00 -19°C° 0 mm 3 mps 750 mmHg 95%
    18:00 -22°C° 0 mm 3 mps 750 mmHg 97%
    19:00 -22°C° 0 mm 3 mps 750 mmHg 98%
    20:00 -21°C° 0 mm 2 mps 751 mmHg 98%
    21:00 -23°C° 0 mm 2 mps 751 mmHg 99%
    22:00 -23°C° 0 mm 2 mps 751 mmHg 99%
    23:00 -24°C° 0 mm 2 mps 752 mmHg 99%

    Tomorrow, 23 January, Wednesday

    Time Temperature Precipitation Wind Pressure Humidity
    00:00 -24°C° 0 mm 2 mps 752 mmHg 99%
    01:00 -22°C° 0 mm 1 mps 752 mmHg 99%
    02:00 -22°C° 0 mm 1 mps 752 mmHg 98%
    03:00 -22°C° 0 mm 1 mps 753 mmHg 98%
    04:00 -22°C° 0 mm 1 mps 753 mmHg 98%
    05:00 -22°C° 0 mm 1 mps 753 mmHg 97%
    06:00 -22°C° 0 mm 1 mps 753 mmHg 97%
    07:00 -22°C° 0 mm 1 mps 753 mmHg 96%
    08:00 -22°C° 0 mm 1 mps 753 mmHg 96%
    09:00 -22°C° 0 mm 1 mps 754 mmHg 95%
    10:00 -20°C° 0 mm 1 mps 754 mmHg 94%
    11:00 -21°C° 0 mm 2 mps 754 mmHg 93%
    12:00 -19°C° 0 mm 2 mps 754 mmHg 91%
    13:00 -19°C° 0 mm 2 mps 754 mmHg 91%
    14:00 -17°C° 0 mm 1 mps 754 mmHg 91%
    15:00 -17°C° 0 mm 1 mps 754 mmHg 91%
    16:00 -20°C° 0 mm 2 mps 754 mmHg 92%
    17:00 -21°C° 0 mm 2 mps 754 mmHg 92%
    18:00 -23°C° 0 mm 2 mps 754 mmHg 92%
    19:00 -23°C° 0 mm 2 mps 754 mmHg 92%
    20:00 -23°C° 0 mm 2 mps 754 mmHg 93%
    21:00 -23°C° 0 mm 2 mps 754 mmHg 93%
    22:00 -24°C° 0 mm 3 mps 754 mmHg 93%
    23:00 -23°C° 0 mm 3 mps 754 mmHg 92%

    Day after tomorrow, 24 January, Thursday

    Time Temperature Precipitation Wind Pressure Humidity
    00:00 -23°C° 0 mm 3 mps 754 mmHg 92%
    01:00 -22°C° 0 mm 3 mps 754 mmHg 91%
    02:00 -22°C° 0 mm 4 mps 753 mmHg 90%
    03:00 -20°C° 0 mm 4 mps 753 mmHg 89%
    04:00 -19°C° 0.2 mm 4 mps 752 mmHg 91%
    05:00 -20°C° 0.2 mm 5 mps 752 mmHg 93%
    06:00 -19°C° 0.2 mm 5 mps 751 mmHg 95%
    07:00 -18°C° 0.7 mm 6 mps 750 mmHg 94%
    08:00 -17°C° 0.7 mm 6 mps 750 mmHg 94%
    09:00 -16°C° 0.7 mm 6 mps 750 mmHg 94%
    10:00 -17°C° 0.5 mm 7 mps 749 mmHg 94%
    11:00 -15°C° 0.5 mm 7 mps 749 mmHg 93%
    12:00 -14°C° 0.5 mm 7 mps 748 mmHg 92%
    13:00 -14°C° 0.3 mm 6 mps 748 mmHg 92%
    14:00 -12°C° 0.3 mm 5 mps 747 mmHg 93%
    15:00 -12°C° 0.3 mm 5 mps 747 mmHg 93%
    16:00 -11°C° 0.2 mm 4 mps 747 mmHg 94%
    17:00 -10°C° 0.2 mm 4 mps 746 mmHg 94%
    18:00 -9°C° 0.2 mm 3 mps 746 mmHg 94%
    19:00 -9°C° 0.1 mm 3 mps 746 mmHg 95%
    20:00 -8°C° 0.1 mm 2 mps 746 mmHg 95%
    21:00 -8°C° 0.1 mm 2 mps 746 mmHg 96%
    22:00 -8°C° 0.1 mm 2 mps 747 mmHg 96%
    23:00 -6°C° 0.1 mm 1 mps 747 mmHg 97%

    25 January, Friday

    Time Temperature Precipitation Wind Pressure Humidity
    00:00 -6°C° 0.1 mm 1 mps 747 mmHg 97%
    01:00 -7°C° 0 mm 2 mps 747 mmHg 97%
    02:00 -8°C° 0 mm 2 mps 748 mmHg 97%
    03:00 -8°C° 0 mm 2 mps 748 mmHg 96%
    04:00 -9°C° 0 mm 3 mps 748 mmHg 96%
    05:00 -10°C° 0 mm 3 mps 748 mmHg 95%
    06:00 -11°C° 0 mm 4 mps 748 mmHg 95%
    07:00 -12°C° 0 mm 4 mps 749 mmHg 95%
    08:00 -14°C° 0 mm 4 mps 749 mmHg 95%
    09:00 -15°C° 0 mm 4 mps 750 mmHg 95%
    10:00 -15°C° 0 mm 4 mps 750 mmHg 95%
    11:00 -15°C° 0 mm 4 mps 751 mmHg 95%
    12:00 -15°C° 0 mm 4 mps 751 mmHg 94%
    13:00 -15°C° 0 mm 4 mps 751 mmHg 94%
    14:00 -15°C° 0 mm 4 mps 751 mmHg 95%
    15:00 -15°C° 0 mm 4 mps 752 mmHg 95%
    16:00 -16°C° 0 mm 4 mps 752 mmHg 95%
    17:00 -17°C° 0 mm 4 mps 752 mmHg 95%
    18:00 -18°C° 0 mm 4 mps 752 mmHg 96%
    19:00 -18°C° 0 mm 4 mps 753 mmHg 95%
    20:00 -19°C° 0 mm 4 mps 753 mmHg 95%
    21:00 -19°C° 0 mm 4 mps 753 mmHg 95%
    22:00 -19°C° 0 mm 4 mps 753 mmHg 95%
    23:00 -20°C° 0 mm 4 mps 753 mmHg 95%

    26 January, Saturday

    Time Temperature Precipitation Wind Pressure Humidity
    00:00 -20°C° 0 mm 4 mps 753 mmHg 95%
    01:00 -19°C° 0.1 mm 4 mps 753 mmHg 95%
    02:00 -20°C° 0.1 mm 5 mps 753 mmHg 94%
    03:00 -19°C° 0.1 mm 5 mps 753 mmHg 94%
    04:00 -19°C° 0.2 mm 5 mps 753 mmHg 94%
    05:00 -19°C° 0.2 mm 5 mps 753 mmHg 94%
    06:00 -19°C° 0.2 mm 5 mps 752 mmHg 93%
    07:00 -19°C° 0.3 mm 5 mps 752 mmHg 93%
    08:00 -20°C° 0.3 mm 6 mps 752 mmHg 94%
    09:00 -18°C° 0.3 mm 6 mps 752 mmHg 94%
    10:00 -18°C° 0.4 mm 6 mps 752 mmHg 94%
    11:00 -18°C° 0.4 mm 6 mps 752 mmHg 94%
    12:00 -17°C° 0.4 mm 6 mps 752 mmHg 94%
    13:00 -17°C° 0.6 mm 6 mps 752 mmHg 94%
    14:00 -17°C° 0.6 mm 6 mps 751 mmHg 94%
    15:00 -17°C° 0.6 mm 6 mps 751 mmHg 94%
    16:00 -17°C° 0.6 mm 6 mps 751 mmHg 94%
    17:00 -18°C° 0.6 mm 7 mps 750 mmHg 94%
    18:00 -18°C° 0.6 mm 7 mps 750 mmHg 93%
    19:00 -18°C° 0.6 mm 7 mps 750 mmHg 93%
    20:00 -18°C° 0.6 mm 7 mps 750 mmHg 93%
    21:00 -18°C° 0.6 mm 7 mps 749 mmHg 93%
    22:00 -18°C° 0.5 mm 7 mps 749 mmHg 93%
    23:00 -18°C° 0.5 mm 7 mps 749 mmHg 93%

    27 January, Sunday

    Time Temperature Precipitation Wind Pressure Humidity
    00:00 -18°C° 0.5 mm 7 mps 748 mmHg 93%
    01:00 -18°C° 0.4 mm 7 mps 748 mmHg 92%
    02:00 -18°C° 0.4 mm 7 mps 748 mmHg 92%
    03:00 -18°C° 0.4 mm 7 mps 747 mmHg 92%
    04:00 -18°C° 0.4 mm 7 mps 747 mmHg 92%
    05:00 -18°C° 0.4 mm 7 mps 746 mmHg 93%
    06:00 -18°C° 0.4 mm 7 mps 746 mmHg 93%
    07:00 -18°C° 0.4 mm 7 mps 746 mmHg 93%
    08:00 -17°C° 0.4 mm 6 mps 746 mmHg 92%
    09:00 -17°C° 0.4 mm 6 mps 745 mmHg 92%
    10:00 -17°C° 0.3 mm 6 mps 745 mmHg 92%
    11:00 -17°C° 0.3 mm 6 mps 745 mmHg 92%
    12:00 -16°C° 0.3 mm 6 mps 744 mmHg 92%
    13:00 -16°C° 0.3 mm 6 mps 744 mmHg 92%
    14:00 -16°C° 0.3 mm 6 mps 743 mmHg 93%
    15:00 -15°C° 0.3 mm 5 mps 743 mmHg 93%
    16:00 -15°C° 0.2 mm 5 mps 743 mmHg 93%
    17:00 -17°C° 0.2 mm 5 mps 743 mmHg 93%
    18:00 -17°C° 0.2 mm 5 mps 742 mmHg 93%
    19:00 -17°C° 0.2 mm 5 mps 742 mmHg 93%
    20:00 -17°C° 0.2 mm 5 mps 742 mmHg 93%
    21:00 -17°C° 0.2 mm 5 mps 742 mmHg 93%
    22:00 -17°C° 0.2 mm 5 mps 741 mmHg 93%
    23:00 -17°C° 0.2 mm 5 mps 741 mmHg 93%
    Show more